Location: Newark
(51.3318°N, 0.0053°E)
Time: 15:19:36
(UTC+00:00)

CAS-6 - Visible Passes

Search period start: 02 July 2022 00:00
Search period end: 12 July 2022 00:00
Orbit: 612 x 635 km, 97.9° (Epoch: 02 July)

Date Brightness Start Highest point End Pass type
(mag) Time Alt. Az. Time Alt. Az. Time Alt. Az.
02 Jul ? 21:57:41 15° SSE 22:01:18 78° ENE 22:05:40 10° NNW visible
02 Jul ? 23:35:45 10° WSW 23:38:03 14° W 23:40:22 10° NW visible
03 Jul ? 22:16:20 16° S 22:19:45 71° WSW 22:24:06 10° NNW visible
04 Jul ? 20:58:47 10° ESE 21:02:16 24° ENE 21:05:45 10° N visible
04 Jul ? 22:34:58 16° S 22:38:13 47° W 22:42:26 10° NNW visible
05 Jul ? 21:16:39 10° SE 21:20:33 34° ENE 21:24:28 10° N visible
05 Jul ? 22:53:38 14° SSW 22:56:45 32° W 23:00:40 10° NNW visible
06 Jul ? 21:35:03 12° SE 21:38:53 48° ENE 21:43:03 10° N visible
06 Jul ? 23:12:17 12° SW 23:15:20 22° W 23:18:43 10° NW visible
07 Jul ? 21:53:42 15° SSE 21:57:16 72° ENE 22:01:35 10° N visible
07 Jul ? 23:31:25 10° SW 23:33:57 15° W 23:36:30 10° NW visible
08 Jul ? 22:12:21 17° S 22:15:41 77° WSW 22:20:01 10° NNW visible
08 Jul ? 23:52:24 10° W 23:52:38 10° W 23:52:52 10° W visible
09 Jul ? 22:31:01 17° S 22:34:09 51° W 22:38:23 10° NNW visible
10 Jul ? 21:12:43 10° SE 21:16:31 31° ENE 21:20:19 10° N visible
10 Jul ? 22:49:40 16° SSW 22:52:40 34° W 22:56:38 10° NNW visible
11 Jul ? 21:31:05 12° SE 21:34:50 44° ENE 21:38:57 10° N visible
11 Jul ? 23:08:20 13° SW 23:11:13 24° W 23:14:44 10° NW visible
